SCOUT X-4 R/B, 933

Orbit data source: Space-Track

SCOUT X-4 R/B, 933 is space debris in LEO originally from a launch on Sat, 21 Nov 1964 UTC launched from the Air Force Western Test Range (AFWTR). Debris objects in space refer to the collection of defunct objects orbiting the Earth. Examples of debris include non-operational satellites, rocket bodies, and fragments generated from explosions, collisions, or faulty payload assembly.

Loading next visibility...
Identifier
933, 1964-076C
Orbit
LEO
Country
Flag of USUS
Related business
Manufacturer
ABL
Mission
Spacecraft
Bus & Motor
ALTAIR, Unknown motor
Mass
33 kg wet, 33 kg dry
Launch date (UTC)
1964-11-21 (62 years ago)
Launch vehicle
Unknown
Launch site
Air Force Western Test Range (AFWTR)
Object type
Payload
Rocket body
Debris
Shape & HBR
Unknown
Radar Cross Section
Medium (>0.1 m² and <1 m²)

Expand to show TLE details & history
Last TLE update: 16 hours ago

TLE from 16 hours ago
0 SCOUT X-4 R/B
1 00933U 64076C   26175.15434382  .00001160  00000-0  38728-3 0  9998
2 00933  81.3352 144.6338 1048917 339.1513  16.9619 12.82579308837479
Epoch: 2026-06-24T03:42Z
TLE epoch observation values (Epoch: 2026-06-24T03:42:15.306Z)
Latitude
0.00004°
Longitude
176.7544°
Altitude
568.779 km
Speed
7.944 km/s
True Right ascension
09h 38m 32s
True Declination
0° 00' 00"
Sunlit
Object was in daylight at epoch
Visualization orbit readout
Latitude
Unknown
Longitude
Unknown
Altitude
Unknown
Speed
Unknown
Apparent Right ascension
Unknown
Apparent Declination
Unknown
Sunlit
N/A
Visualization observer readout
Local Sidereal Time
06:48:25
Azimuth
Unknown
Elevation
Unknown
Doppler factor
Unknown
Orbital elements
Apogee altitude
2,136.769 km
Perigee altitude
520.063 km
Semi-major axis
7,706.553 km
Eccentricity
0.10489
Inclination
81.3352°
RAAN
144.6338°
Arg. of periapsis
339.1513°
True anomaly
20.96461°
Mean anomaly
16.9619°
Eccentric anomaly
18.90954°
Mean motion
3.20814 °/min
Orbital period
112.21 mins
BSTAR
0.00038728
Loading maneuver chart data...
Computing Atmospheric mass density...
Loading historical data...
Loading historical data...
Loading historical data...
Loading historical data...
Loading historical data...
Loading historical data...
Loading historical data...

Documentation

Showing up to 5 results
|